Location: Chèvreville
(49.1099°N, 2.8495°E)
Time: 07:35:21
(UTC+00:00)

Cosmos 1328 - Pass Details

Date: 28 January 2023
Orbit: 518 x 544 km, 82.5° (Epoch: 22 March)

Event Time Altitude Azimuth Distance (km) Brightness Sun altitude
Rises 18:41:28 0° 194° (SSW) 2,708 7.6 -20.1°
Reaches altitude 10° 18:43:38 10° 196° (SSW) 1,818 6.7 -20.4°
Maximum altitude 18:47:38 70° 281° (WNW) 585 4.0 -21.1°
Enters shadow 18:51:04 14° 5° (N) 1,596 6.1 -21.6°
